Temp
10 11 11 11 11 11 12 12 12 12 12 12 12 12 12 12 12 12 11 11 11 11 11 12 12 12 12 11 11 11 11 12 12 12 12 11 11 11 11 12 12 11 9 9 9 9 9
10 11 11 11 11 12 12 12 12 12 12 12 12 12 12 12 12 12 12 11 11 11 12 12 12 12 12 11 11 11 11 12 12 12 12 11 11 11 11 12 12 11 10 9 9 9 9
10 10 10 11 11 11 11 11 12 12 12 12 12 12 12 12 12 12 12 11 11 11 12 12 12 12 12 11 11 11 11 11 12 12 12 11 11 11 12 12 11 11 9 9 9 9 9
10 10 10 10 11 11 11 11 12 12 12 12 12 12 12 12 12 12 11 11 11 11 11 12 12 12 11 11 11 11 11 11 12 12 11 12 11 11 12 12 11 10 10 9 9 10 9
10 10 10 10 11 11 11 11 11 12 12 12 12 12 12 12 12 12 12 11 11 11 11 12 12 12 11 12 12 10 12 11 11 11 12 11 11 11 12 12 12 11 11 10 9 9 10
10 10 10 10 11 11 11 11 12 12 12 12 12 12 12 12 12 12 12 11 11 11 11 11 12 12 12 12 11 11 11 11 11 11 12 12 11 12 12 12 13 12 12 11 10 9 9
10 10 10 10 11 11 11 11 12 12 12 12 12 12 12 12 12 12 12 11 11 11 11 11 11 12 12 11 11 11 11 11 11 11 11 12 12 13 13 13 13 13 14 12 11 10 10
10 10 10 10 11 11 11 11 12 12 12 13 13 13 13 13 12 12 12 12 11 11 13 12 12 12 12 11 11 11 11 11 11 11 12 12 12 13 13 13 12 13 14 13 11 10 10
9 10 10 10 10 11 11 11 12 12 12 13 13 13 13 13 13 12 12 11 10 10 12 13 13 13 12 11 11 12 11 12 12 12 12 12 14 13 14 14 13 13 13 13 12 11 11
9 9 10 10 10 11 11 11 12 12 12 13 13 13 13 13 13 12 12 12 10 11 12 14 14 13 13 12 12 12 12 12 12 13 13 13 14 14 14 14 14 14 15 13 13 12 11
9 9 10 10 10 11 11 11 12 12 12 13 13 13 13 13 12 12 11 10 10 11 9 14 14 13 13 13 13 13 12 12 12 12 12 13 14 14 14 14 15 16 15 14 13 12 11
9 9 10 10 11 11 11 12 12 12 12 13 13 13 13 13 12 12 12 11 11 10 11 14 14 14 13 13 13 13 13 13 13 13 13 13 14 14 15 15 16 16 16 14 12 11 11
9 9 10 10 10 11 11 12 12 12 12 13 13 13 13 13 12 12 12 11 11 10 14 14 14 14 14 14 14 14 13 13 13 13 14 14 14 15 15 15 16 16 16 14 11 10 9
9 9 9 10 10 11 11 11 11 12 12 13 13 13 13 12 12 11 11 11 11 13 13 14 14 14 14 15 14 14 14 13 13 13 14 13 14 15 15 15 16 16 15 15 12 9 10
9 9 9 10 10 11 11 11 11 12 13 13 13 13 12 12 11 11 11 11 13 13 13 13 14 14 14 14 14 14 14 14 14 15 14 14 15 15 15 15 16 16 15 16 16 13 12
8 9 9 9 9 10 10 11 11 11 12 13 12 12 11 11 11 11 11 11 13 13 13 13 12 14 14 14 14 14 15 15 15 15 15 15 14 16 16 16 16 16 16 15 16 12 10
8 8 9 9 9 9 10 10 11 11 12 12 11 11 11 10 11 10 11 12 12 13 13 13 13 13 14 14 14 14 14 14 15 16 15 15 15 16 15 16 16 16 16 16 16 15 9
8 8 9 9 9 9 10 10 11 11 11 11 11 10 10 9 9 10 10 10 10 11 12 12 13 13 13 13 13 13 14 14 15 15 15 16 15 15 16 16 16 16 16 16 16 15 14
8 8 8 9 9 9 10 10 10 11 11 11 10 9 8 8 8 9 9 9 10 10 11 12 12 13 13 13 13 13 13 14 14 14 15 15 15 15 16 16 16 15 15 15 15 14 14
7 8 8 8 9 9 10 10 10 10 10 10 10 9 9 8 8 8 9 9 10 11 11 11 11 12 12 13 13 12 13 13 14 14 14 15 15 15 15 15 15 15 15 15 14 13 13
7 7 8 8 9 9 10 10 9 9 10 10 9 9 9 8 8 8 8 8 9 10 9 10 11 11 10 11 11 12 12 13 13 13 14 14 14 15 15 14 14 14 15 14 13 14 13
7 7 7 8 8 9 9 9 9 9 9 9 9 8 8 8 8 8 8 8 8 9 9 9 9 10 10 9 8 10 10 11 12 11 12 13 13 14 14 14 14 14 14 14 14 13 13
7 7 7 8 8 8 8 9 9 8 8 8 7 7 8 7 7 7 7 7 7 6 8 8 8 8 10 9 8 9 9 9 10 10 11 12 12 12 13 13 13 13 13 14 13 13 13
7 7 7 8 8 8 8 8 7 7 8 7 7 7 6 6 5 5 6 6 6 6 6 8 8 8 9 8 8 8 8 9 10 10 10 11 11 11 12 12 10 13 13 13 13 13 13
6 7 7 8 8 7 7 7 6 6 6 5 5 5 5 6 5 6 5 5 6 6 6 6 7 7 6 8 8 8 9 9 9 10 10 10 11 10 11 11 12 12 13 12 13 13 13
6 7 7 8 7 7 7 6 6 4 4 4 4 4 4 4 4 6 5 4 5 5 6 6 5 5 6 6 7 7 7 7 8 9 10 10 10 10 9 10 9 12 12 12 11 12 12
6 7 7 7 7 7 6 5 4 3 3 4 4 3 4 4 4 4 4 5 4 3 4 4 5 5 5 6 6 6 6 6 7 7 8 9 9 9 9 9 9 11 10 11 11 12 11
6 7 6 6 6 5 5 4 3 3 3 3 4 4 4 5 4 4 4 4 4 3 3 3 4 3 4 4 4 5 5 6 6 7 7 8 8 9 9 8 9 8 9 10 11 12 11
6 6 5 5 5 4 3 3 3 3 3 3 3 3 4 4 4 4 4 4 4 2 3 3 3 3 2 3 3 4 4 4 4 5 6 7 6 8 8 8 9 9 9 10 10 10 9
Height
3185 3183 3181 3179 3177 3175 3173 3171 3169 3166 3164 3163 3161 3159 3158 3157 3156 3155 3154 3153 3152 3151 3151 3152 3153 3155 3157 3161 3166 3167 3168 3171 3173 3176 3177 3178 3177 3176 3176 3173 3166 3168 3166 3168 3166 3167 3170
3186 3184 3182 3180 3177 3175 3173 3171 3169 3167 3165 3163 3161 3160 3159 3158 3156 3155 3154 3153 3152 3152 3151 3152 3153 3154 3157 3161 3163 3164 3167 3168 3172 3175 3177 3177 3176 3175 3174 3173 3168 3163 3164 3166 3167 3165 3169
3187 3185 3183 3180 3178 3175 3173 3171 3169 3167 3165 3163 3161 3160 3158 3157 3157 3156 3154 3153 3152 3152 3151 3152 3152 3154 3157 3160 3162 3163 3165 3166 3170 3175 3176 3176 3173 3174 3173 3172 3168 3167 3167 3168 3171 3171 3171
3189 3187 3184 3181 3179 3176 3173 3171 3169 3166 3164 3162 3160 3158 3157 3156 3156 3155 3154 3154 3153 3152 3152 3152 3153 3154 3157 3158 3159 3161 3162 3165 3170 3173 3176 3175 3173 3175 3173 3171 3169 3168 3170 3171 3172 3173 3174
3190 3187 3185 3183 3180 3177 3174 3171 3169 3166 3163 3161 3159 3157 3155 3154 3154 3154 3154 3154 3153 3152 3152 3153 3154 3155 3157 3158 3158 3160 3161 3165 3169 3172 3175 3174 3172 3172 3172 3171 3171 3168 3169 3171 3172 3173 3176
3191 3188 3186 3183 3180 3177 3174 3171 3168 3165 3163 3160 3157 3155 3153 3152 3152 3152 3153 3153 3153 3152 3152 3153 3154 3158 3158 3158 3158 3158 3160 3164 3168 3171 3173 3173 3172 3170 3169 3170 3172 3169 3170 3170 3170 3171 3174
3192 3189 3186 3183 3180 3177 3173 3170 3167 3164 3161 3159 3156 3153 3151 3150 3150 3150 3151 3152 3155 3154 3151 3151 3153 3155 3156 3157 3156 3158 3160 3162 3166 3168 3170 3172 3172 3167 3167 3170 3173 3172 3171 3171 3169 3169 3171
3192 3189 3186 3182 3179 3176 3173 3169 3166 3163 3159 3156 3154 3151 3150 3148 3148 3148 3150 3151 3152 3151 3148 3149 3150 3150 3154 3155 3156 3158 3160 3162 3164 3165 3167 3171 3168 3166 3168 3170 3171 3171 3169 3170 3170 3169 3170
3193 3189 3186 3182 3179 3175 3172 3167 3164 3160 3157 3154 3151 3149 3147 3146 3146 3147 3148 3151 3152 3149 3147 3145 3146 3150 3151 3154 3155 3157 3159 3161 3162 3163 3165 3165 3163 3168 3166 3165 3166 3165 3168 3167 3168 3168 3169
3193 3189 3186 3182 3178 3175 3170 3166 3162 3158 3155 3152 3149 3146 3145 3144 3146 3145 3146 3148 3149 3148 3146 3146 3146 3148 3148 3150 3154 3156 3157 3161 3161 3161 3162 3163 3161 3165 3164 3164 3164 3163 3164 3166 3165 3167 3167
3193 3189 3186 3182 3178 3174 3169 3165 3160 3156 3153 3149 3147 3144 3143 3142 3143 3144 3146 3145 3145 3147 3148 3147 3146 3147 3147 3150 3153 3154 3157 3159 3159 3159 3163 3157 3157 3159 3161 3161 3160 3160 3160 3160 3162 3165 3168
3193 3189 3185 3181 3176 3172 3167 3163 3158 3154 3151 3147 3144 3142 3141 3141 3141 3142 3143 3144 3146 3150 3146 3144 3145 3144 3147 3149 3151 3153 3155 3158 3159 3158 3157 3153 3155 3156 3155 3157 3157 3159 3160 3159 3164 3170 3169
3192 3188 3184 3179 3175 3170 3165 3160 3155 3152 3148 3145 3142 3141 3138 3138 3140 3141 3142 3144 3148 3145 3144 3143 3142 3144 3145 3146 3149 3150 3152 3153 3154 3155 3154 3153 3151 3151 3153 3154 3155 3156 3157 3160 3167 3166 3164
3192 3187 3182 3178 3173 3167 3162 3158 3153 3150 3146 3143 3141 3139 3137 3137 3137 3139 3141 3145 3143 3140 3142 3144 3145 3144 3144 3145 3145 3147 3149 3150 3150 3151 3152 3152 3150 3148 3149 3150 3151 3153 3154 3155 3161 3162 3156
3191 3186 3181 3176 3170 3165 3160 3156 3152 3148 3144 3141 3138 3137 3136 3136 3136 3137 3140 3141 3139 3140 3142 3142 3140 3142 3143 3144 3145 3144 3144 3144 3146 3148 3150 3147 3146 3146 3147 3146 3149 3149 3150 3153 3152 3152 3154
3189 3184 3179 3174 3168 3163 3158 3154 3150 3146 3142 3139 3137 3137 3136 3137 3136 3137 3139 3139 3137 3139 3140 3140 3140 3142 3143 3142 3143 3144 3141 3139 3141 3143 3143 3143 3142 3140 3141 3137 3143 3145 3149 3149 3149 3152 3157
3187 3182 3177 3171 3166 3160 3155 3151 3148 3144 3140 3137 3135 3137 3137 3136 3135 3136 3136 3136 3137 3139 3141 3139 3137 3136 3137 3137 3138 3138 3138 3139 3138 3138 3137 3139 3141 3137 3138 3139 3139 3142 3143 3145 3147 3147 3150
3185 3180 3174 3168 3163 3158 3153 3148 3144 3143 3139 3136 3134 3135 3134 3134 3136 3134 3135 3135 3135 3133 3133 3132 3132 3132 3131 3131 3129 3132 3133 3134 3133 3131 3132 3133 3134 3134 3134 3137 3139 3139 3139 3141 3141 3143 3143
3183 3177 3171 3165 3160 3155 3151 3146 3141 3138 3137 3135 3133 3133 3134 3134 3134 3133 3132 3132 3131 3130 3130 3129 3128 3128 3128 3128 3127 3125 3126 3127 3128 3126 3127 3127 3128 3129 3130 3134 3134 3135 3136 3137 3138 3140 3139
3180 3174 3168 3162 3157 3152 3147 3144 3140 3135 3134 3134 3134 3132 3132 3131 3131 3130 3129 3130 3129 3130 3128 3128 3126 3123 3123 3122 3123 3121 3121 3122 3122 3121 3122 3122 3123 3124 3126 3128 3129 3130 3132 3136 3134 3136 3140
3177 3171 3165 3160 3154 3149 3144 3141 3137 3132 3130 3130 3129 3129 3129 3128 3128 3127 3128 3127 3124 3123 3123 3121 3121 3120 3119 3117 3115 3116 3115 3116 3118 3116 3119 3119 3120 3120 3122 3124 3125 3126 3128 3129 3131 3131 3133
3173 3167 3162 3156 3151 3145 3140 3136 3132 3129 3125 3125 3125 3124 3123 3123 3122 3121 3121 3119 3120 3117 3118 3117 3116 3116 3116 3115 3115 3112 3111 3112 3113 3112 3114 3114 3115 3116 3117 3119 3120 3121 3122 3125 3127 3125 3128
3169 3163 3158 3152 3147 3141 3136 3131 3128 3126 3122 3120 3119 3116 3116 3117 3116 3116 3115 3113 3113 3112 3115 3114 3111 3110 3112 3112 3110 3109 3109 3109 3109 3109 3110 3112 3111 3111 3112 3113 3114 3116 3116 3119 3121 3123 3126
3164 3158 3153 3148 3143 3138 3133 3128 3124 3121 3119 3117 3116 3114 3113 3112 3111 3110 3109 3108 3109 3109 3107 3109 3105 3106 3107 3105 3103 3103 3104 3103 3105 3106 3107 3108 3109 3109 3109 3110 3111 3110 3112 3114 3117 3118 3121
3159 3154 3149 3143 3138 3133 3129 3125 3122 3119 3116 3113 3111 3110 3108 3106 3106 3105 3104 3103 3103 3103 3104 3103 3102 3102 3099 3099 3097 3096 3097 3099 3099 3101 3104 3105 3105 3106 3106 3105 3107 3106 3106 3109 3110 3111 3114
3155 3149 3144 3139 3134 3130 3126 3122 3119 3116 3113 3111 3109 3107 3105 3103 3102 3100 3100 3099 3097 3096 3098 3097 3097 3097 3096 3095 3094 3092 3092 3094 3095 3095 3098 3099 3099 3102 3105 3105 3103 3102 3102 3102 3105 3107 3110
3151 3145 3140 3135 3131 3127 3123 3120 3117 3114 3112 3109 3107 3106 3103 3101 3099 3097 3096 3094 3093 3093 3092 3090 3091 3092 3091 3091 3091 3090 3089 3091 3091 3090 3091 3092 3092 3093 3095 3100 3104 3101 3099 3099 3102 3108 3105
3145 3140 3135 3131 3127 3123 3120 3117 3115 3112 3110 3108 3105 3103 3101 3098 3096 3093 3091 3090 3089 3088 3087 3088 3088 3088 3089 3088 3088 3088 3086 3086 3085 3085 3085 3086 3087 3088 3089 3092 3095 3100 3102 3099 3101 3101 3103
3141 3136 3131 3127 3123 3120 3117 3115 3112 3109 3107 3106 3103 3100 3097 3094 3094 3089 3086 3084 3085 3085 3084 3083 3084 3085 3085 3086 3086 3085 3084 3083 3082 3082 3081 3083 3081 3083 3087 3087 3088 3091 3093 3091 3094 3098 3102
Wind_Speed
19 19 19 19 19 19 18 17 16 15 14 13 11 9 8 8 8 8 7 5 3 1 2 4 7 9 8 14 13 6 9 10 9 9 9 4 2 8 7 24 12 14 1 3 3 20 10
19 19 19 19 18 18 18 18 17 16 14 12 11 10 8 7 7 7 7 6 4 2 1 3 5 7 6 9 14 11 3 13 11 10 10 4 8 10 13 19 11 7 6 5 8 9 15
20 20 20 20 20 19 18 18 17 16 14 13 11 10 8 7 5 5 5 5 4 3 1 2 4 6 7 12 9 7 3 13 13 13 12 5 9 9 12 12 9 10 7 2 3 12 4
20 20 20 20 20 20 19 19 18 17 15 14 13 10 9 7 5 3 3 4 5 4 3 1 2 5 11 8 4 1 7 11 14 14 12 6 8 9 8 11 10 7 1 5 3 4 8
20 20 20 19 19 19 19 18 18 17 15 15 14 12 10 8 6 4 1 3 8 6 4 4 3 3 12 5 7 3 8 13 13 12 13 5 3 11 9 7 8 8 6 3 3 12 8
20 20 20 20 19 19 19 18 18 17 16 16 15 14 11 9 6 5 2 5 4 7 5 3 5 4 7 5 4 7 2 15 15 12 12 15 11 16 15 13 6 6 6 3 1 16 12
20 21 21 20 20 20 20 19 18 18 17 17 16 14 12 9 7 6 5 6 1 1 4 3 3 5 1 5 2 2 2 14 15 11 11 13 15 16 9 9 8 5 11 1 3 11 9
20 21 22 21 20 20 21 21 20 19 18 17 16 14 11 9 6 6 5 7 3 12 8 8 9 11 6 10 6 2 4 20 17 15 12 13 21 13 16 22 20 14 4 6 5 14 10
21 21 21 22 21 22 22 22 21 20 18 18 16 14 10 7 5 3 1 6 2 9 18 6 7 10 13 12 9 6 8 15 14 11 11 15 8 8 17 18 21 21 14 9 9 16 13
20 20 21 21 22 23 23 23 22 21 19 18 15 13 9 5 3 4 5 8 5 6 10 4 6 11 13 12 10 9 5 17 16 13 10 14 11 16 15 20 20 19 11 14 12 19 8
20 20 22 23 23 24 24 24 24 21 20 17 15 12 7 4 3 10 12 15 9 2 4 5 6 3 7 10 7 11 10 15 16 17 13 21 21 18 12 19 14 18 18 19 18 20 7
21 22 23 25 25 25 25 24 24 22 19 18 14 11 6 4 7 13 13 14 10 2 6 9 8 7 11 9 9 4 15 10 6 14 16 22 16 14 8 8 15 13 11 6 22 5 7
21 23 24 26 27 27 25 25 24 22 18 16 14 10 7 4 8 12 13 10 9 6 3 10 15 12 8 11 10 10 21 18 13 12 17 13 19 15 15 12 12 14 14 6 5 5 9
23 24 26 27 28 28 25 23 22 21 18 15 12 8 5 3 7 9 17 15 9 4 4 5 11 16 12 9 10 16 16 17 18 14 10 17 16 16 13 16 15 10 8 6 5 4 5
25 27 28 29 28 27 25 22 20 20 18 13 11 8 3 1 7 10 16 21 7 1 3 14 13 22 18 14 12 21 25 24 19 10 15 9 14 12 15 16 20 21 12 10 9 5 5
28 30 30 30 29 27 24 22 20 20 19 13 8 4 9 6 1 5 12 22 16 10 10 7 19 12 9 8 11 15 25 28 28 21 17 18 21 13 8 13 22 20 13 7 6 1 1
29 31 31 29 28 28 25 22 19 18 18 13 7 3 1 8 6 5 10 14 14 11 9 13 17 23 19 19 19 15 5 15 28 24 23 21 28 17 17 9 24 20 17 17 13 5 7
30 33 33 30 29 27 25 24 24 19 15 13 3 3 5 11 14 3 1 8 14 11 10 16 17 14 15 14 18 19 17 12 12 15 30 24 26 29 23 17 13 17 20 17 19 6 4
33 34 33 30 30 29 26 24 25 24 16 9 2 7 4 2 9 6 11 15 14 16 13 12 10 16 16 17 20 20 20 17 14 11 10 11 11 18 20 18 21 11 11 11 8 5 5
33 35 34 32 31 29 28 24 22 22 16 9 4 6 12 13 16 14 16 14 16 16 19 14 10 14 15 21 22 19 18 19 17 17 12 14 24 21 19 14 6 14 17 17 7 3 2
35 36 35 33 32 30 29 25 21 20 18 14 7 7 10 14 20 19 14 13 14 15 12 14 15 10 11 16 17 20 21 20 18 16 15 10 14 18 15 8 7 13 14 9 14 8 5
35 36 36 34 32 31 29 27 24 20 21 17 13 12 13 16 21 26 20 16 11 15 12 14 14 15 9 5 6 8 9 11 15 14 13 8 11 15 13 11 10 13 11 11 14 10 13
38 39 36 35 33 31 30 28 25 22 21 21 18 17 15 10 13 16 17 17 16 15 17 15 20 20 19 14 16 10 10 11 11 12 9 10 2 4 8 12 6 17 16 12 15 18 22
39 37 34 34 31 30 29 27 25 24 22 19 15 14 14 13 12 15 21 23 21 19 18 26 26 27 27 26 26 26 20 21 19 19 11 12 8 5 6 10 3 6 13 16 19 23 19
35 34 35 33 31 29 26 24 24 23 22 18 16 14 14 15 12 14 18 20 22 26 25 23 26 23 16 30 29 28 31 31 28 26 21 16 17 7 5 10 10 10 8 13 17 16 14
33 34 33 32 30 27 25 24 23 20 18 17 16 15 16 18 15 13 11 14 18 18 17 18 19 18 14 15 16 10 8 12 12 16 14 14 15 25 19 6 6 13 15 16 13 13 11
35 33 32 31 28 25 24 22 20 18 19 15 15 14 15 17 11 16 17 19 18 21 24 23 16 18 15 15 15 17 15 11 13 15 16 19 17 17 35 19 9 7 20 21 16 8 21
35 33 32 31 26 23 22 20 19 18 13 14 17 17 18 18 14 11 16 16 16 16 17 16 13 13 13 9 6 7 8 8 13 16 18 17 10 10 13 25 14 26 18 19 20 11 17
34 32 31 28 24 22 20 19 20 15 13 15 18 19 20 20 17 19 16 16 15 9 15 16 16 12 2 5 5 7 7 10 11 11 12 11 5 10 10 9 12 20 24 20 16 22 22
Wind_Direction
30 28 26 24 23 20 15 14 14 14 15 15 14 14 21 27 33 37 39 39 47 123 209 217 217 213 207 199 187 133 189 191 178 156 137 107 359 352 328 345 350 308 171 231 139 184 169
23 20 17 13 12 11 8 5 4 4 2 2 1 359 357 4 14 23 34 36 38 54 191 211 210 204 200 171 188 228 206 178 175 153 142 101 3 350 327 341 20 14 1 228 282 207 153
21 18 17 14 10 9 8 5 2 357 353 351 347 347 344 338 351 4 24 30 36 42 63 188 194 192 182 162 194 229 174 180 170 156 154 84 25 11 322 337 348 29 66 102 133 171 181
19 16 12 13 10 9 10 8 5 1 355 349 346 335 327 324 316 326 6 41 48 46 45 77 169 181 166 185 295 229 151 173 174 167 161 107 33 318 292 319 309 297 164 192 188 188 177
17 16 11 7 6 3 4 3 2 359 353 350 345 338 323 310 307 294 313 84 64 50 49 61 92 128 176 320 269 336 151 167 179 173 155 143 261 273 275 304 20 97 144 163 222 195 208
13 12 9 6 2 359 356 355 354 351 348 341 335 334 325 306 291 279 246 156 81 73 65 70 77 128 93 55 105 44 171 169 176 174 177 184 230 250 264 265 20 42 137 172 212 195 202
9 7 3 360 356 353 350 349 347 343 340 339 336 331 325 310 288 270 233 183 274 255 268 213 241 150 92 127 146 43 164 168 159 174 197 182 232 241 271 292 274 50 68 103 188 177 206
4 2 1 358 353 349 346 343 341 337 336 333 331 329 320 310 305 260 244 207 282 316 316 279 216 171 163 164 163 242 182 164 171 194 195 228 240 254 282 273 262 247 261 128 168 169 200
3 1 1 2 358 353 349 348 341 336 331 332 332 327 316 305 302 273 204 179 165 319 311 13 223 182 156 193 184 284 189 167 173 183 206 237 220 256 290 264 247 243 238 181 221 186 202
3 3 1 360 356 352 348 347 346 341 335 330 333 326 321 292 283 191 166 174 194 292 322 94 138 153 169 177 224 206 147 160 189 186 199 256 283 292 258 256 256 256 277 206 237 204 191
2 359 357 355 351 348 344 342 340 341 339 326 329 323 321 265 210 162 155 154 180 272 352 134 129 135 161 155 155 186 181 181 193 217 245 254 277 295 266 259 265 287 299 228 217 218 218
1 358 355 353 348 344 342 338 337 336 336 333 322 323 315 239 204 191 186 177 168 174 257 188 195 173 162 165 184 174 197 213 219 240 258 267 269 282 267 308 261 278 283 228 212 241 340
355 352 350 349 347 346 341 340 338 337 334 331 328 324 315 249 207 205 201 191 172 223 154 215 207 196 213 163 184 236 203 212 216 224 245 251 254 244 244 257 238 255 260 161 156 186 219
351 348 347 345 344 343 344 343 341 341 339 332 335 330 316 246 197 191 206 196 215 218 297 25 341 214 214 193 207 195 206 220 226 241 270 276 283 239 229 245 239 231 267 213 200 193 242
346 344 343 344 342 343 342 344 340 338 345 335 341 346 348 220 203 207 199 203 227 57 315 351 21 201 220 238 236 210 223 233 251 232 222 219 264 271 271 251 240 236 249 246 310 299 172
345 342 339 341 345 344 339 341 345 340 345 345 337 32 97 65 104 229 217 223 241 254 305 320 325 324 281 295 274 271 241 246 246 250 246 252 261 284 254 249 224 233 239 249 279 60 32
347 347 343 339 340 342 340 335 346 350 348 351 321 83 152 11 355 302 248 260 289 284 295 309 315 314 281 283 285 295 314 296 260 264 247 247 250 272 295 230 204 217 227 243 255 230 161
341 341 342 342 343 341 340 337 335 346 353 355 294 13 22 13 354 300 335 314 309 309 277 285 302 283 297 297 303 285 288 290 292 357 249 252 237 246 268 275 252 243 239 240 241 232 181
338 340 341 342 342 339 338 338 335 336 349 8 144 189 173 343 298 287 280 287 287 284 286 310 300 280 267 275 301 297 285 272 276 298 308 209 219 230 242 255 251 248 225 255 228 72 105
340 343 342 341 339 339 338 340 338 334 343 354 195 193 194 202 245 261 276 277 278 255 264 279 311 272 294 268 261 291 290 275 275 280 293 250 254 249 239 243 242 236 230 240 239 100 28
336 340 341 340 339 339 336 337 338 332 335 341 328 269 234 223 232 246 267 283 285 294 308 288 270 278 319 293 286 278 276 272 259 281 273 261 259 231 236 238 232 234 251 256 261 260 242
334 336 337 337 338 337 336 337 339 339 334 335 320 287 271 257 254 255 258 245 267 254 280 280 289 267 290 321 3 311 303 287 272 280 274 257 244 248 238 242 251 237 233 269 243 291 284
328 331 332 333 335 336 334 335 337 336 331 327 322 309 299 276 259 259 245 243 248 276 241 262 279 277 254 271 280 265 263 258 252 275 267 258 272 290 243 250 244 214 211 248 276 261 276
328 328 330 331 332 333 333 334 333 331 328 326 322 310 299 292 287 269 253 252 253 253 271 252 266 272 265 266 274 274 266 266 251 239 235 230 258 317 260 267 223 226 215 238 250 256 276
328 329 330 330 332 333 332 331 329 328 327 327 329 322 318 315 308 275 276 275 267 262 264 268 270 276 288 264 274 275 271 264 267 260 248 234 234 269 247 239 247 227 205 219 240 252 281
330 331 331 330 331 330 329 328 327 328 327 325 324 322 319 321 325 307 300 291 288 286 278 274 259 261 268 278 270 269 252 261 263 257 259 238 246 253 267 291 218 253 234 224 209 257 235
330 330 331 331 331 329 328 327 326 325 325 321 323 324 314 318 318 306 301 295 292 287 287 293 291 264 266 264 260 266 269 242 246 256 266 252 271 253 229 229 271 207 179 188 193 219 178
328 329 330 329 329 328 327 326 327 322 323 323 320 325 324 318 317 313 293 286 278 289 288 290 291 250 276 260 257 264 279 271 256 259 259 262 258 238 223 222 211 226 251 247 256 210 215
324 325 326 326 327 326 322 320 323 323 322 320 319 323 322 318 316 305 291 278 281 271 283 276 266 246 274 271 261 252 256 288 283 262 244 247 262 231 219 194 190 203 215 227 239 264 243